Location: Bukovany
(49.8234°N, 14.6297°E)
Time: 17:12:08
(UTC+00:00)

Cosmos 2278 Rocket - Pass Details

Date: 17 November 2025
Orbit: 841 x 843 km, 71.0° (Epoch: 12 December)

Event Time Altitude Azimuth Distance (km) Brightness Sun altitude
Rises 17:51:40 0° 228° (SW) 3,388 6.0 -24.9°
Reaches altitude 10° 17:54:13 10° 234° (SW) 2,457 5.3 -25.4°
Maximum altitude 17:59:37 46° 307° (NW) 1,124 3.1 -26.2°
Enters shadow 18:02:55 23° 10° (N) 1,745 3.7 -26.8°
